Sacramento, CA

8:48 PM PDT on September 20, 2017 (GMT -0700)
Sacramento Executive

Weather History for KSAC - January, 2013

Change the Weather History Date:

Friday, January 25, 2013

  Actual Average Record
Temperature  
Mean Temperature 58 °F -  
Max Temperature 66 °F 55 °F 74 °F (2014)
Min Temperature 49 °F 39 °F 25 °F (1962)
Degree Days  
Heating Degree Days 7    
Cooling Degree Days 0    
Growing Degree Days 7 (Base 50)    
Moisture  
Dew Point 51 °F    
Average Humidity 80    
Maximum Humidity 96    
Minimum Humidity 63    
Precipitation  
Precipitation T in 0.12 in 0.91 in (2001)
Month to date precipitation 0.96 2.92  
Year to date precipitation 0.96 2.92  
Since 1 July precipitation 12.25  
Sea Level Pressure  
Sea Level Pressure 30.16 in    
Wind  
Wind Speed 1 mph (WNW)    
Max Wind Speed 9 mph    
Max Gust Speed 13 mph    
Visibility 3 miles    
Events Fog , Rain    
T = Trace of Precipitation, MM = Missing Value Source: NWS Daily Summary

Daily Weather History Graph

Daily Weather History Graph

Search for Another Location

Airport or City:

Trip Planner

Search our weather history database for the weather conditions in past years. The results will help you decide how hot, cold, wet, or windy it might be!

Date:

Astronomy

Jan. 25, 2013 Rise Set
Actual Time 7:16 AM PST 5:20 PM PST
Civil Twilight 6:48 AM PST 5:48 PM PST
Nautical Twilight 6:16 AM PST 6:21 PM PST
Astronomical Twilight 5:44 AM PST 6:52 PM PST
Moon 4:22 PM PST (1/25) 5:59 AM PST (1/25)
Length of Visible Light 11h 00m
Length of Day
10h 03m
Waxing Gibbous, 98% of the Moon is Illuminated
Jan 25
Waxing Gibbous
Jan 26
Full
Feb 3
Last Quarter
Feb 9
New
Feb 17
First Quarter

Hourly Weather History & Observations

Time (PST) Temp. Dew Point Humidity Pressure Visibility Wind Dir Wind Speed Gust Speed Precip Events Conditions
12:00 AM 51.8 °F 50.0 °F 94% 30.21 in 1.8 mi Calm Calm - N/A   Overcast
12:10 AM 53.6 °F 51.8 °F 94% 30.21 in 2.5 mi Calm Calm - N/A   Overcast
12:28 AM 53.6 °F 51.8 °F 94% 30.20 in 2.5 mi Calm Calm - N/A   Overcast
12:50 AM 51.8 °F 50.0 °F 94% 30.19 in 1.8 mi Calm Calm - N/A   Overcast
12:53 AM 52.0 °F 50.0 °F 93% 30.19 in 1.8 mi Calm Calm - N/A   Overcast
1:00 AM 51.8 °F 50.0 °F 94% 30.19 in 2.0 mi Calm Calm - N/A   Overcast
1:29 AM 51.8 °F 50.0 °F 94% 30.20 in 1.8 mi Calm Calm - N/A   Overcast
1:41 AM 51.8 °F 50.0 °F 94% 30.20 in 2.0 mi Calm Calm - 0.00 in Rain Light Rain
1:53 AM 52.0 °F 50.0 °F 93% 30.20 in 1.8 mi WSW 3.5 mph - 0.00 in   Overcast
2:10 AM 51.8 °F 50.0 °F 94% 30.20 in 2.0 mi Calm Calm - N/A   Overcast
2:20 AM 51.8 °F 50.0 °F 94% 30.20 in 1.8 mi West 3.5 mph - N/A   Overcast
2:36 AM 51.8 °F 48.2 °F 88% 30.20 in 2.0 mi West 4.6 mph - N/A   Overcast
2:53 AM 51.1 °F 48.9 °F 92% 30.20 in 2.0 mi Calm Calm - N/A   Overcast
2:58 AM 51.8 °F 48.2 °F 88% 30.20 in 1.8 mi Calm Calm - N/A   Overcast
3:53 AM 50.0 °F 48.0 °F 93% 30.18 in 0.8 mi Calm Calm - N/A   Overcast
3:57 AM 50.0 °F 48.2 °F 94% 30.18 in 1.0 mi Calm Calm - N/A   Overcast
4:04 AM 51.8 °F 48.2 °F 88% 30.18 in 1.2 mi Calm Calm - N/A   Overcast
4:19 AM 50.0 °F 48.2 °F 94% 30.17 in 0.2 mi Calm Calm - N/A Fog Fog
4:31 AM 50.0 °F 48.2 °F 94% 30.17 in 0.5 mi Calm Calm - N/A Fog Fog
4:44 AM 50.0 °F 48.2 °F 94% 30.18 in 0.2 mi Calm Calm - N/A Fog Fog
4:53 AM 50.0 °F 48.9 °F 96% 30.18 in 0.5 mi Calm Calm - N/A Fog Fog
5:04 AM 50.0 °F 48.2 °F 94% 30.18 in 1.2 mi Calm Calm - N/A   Overcast
5:44 AM 51.8 °F 48.2 °F 88% 30.19 in 2.0 mi NNW 4.6 mph - 0.00 in   Overcast
5:53 AM 52.0 °F 50.0 °F 93% 30.19 in 2.0 mi North 3.5 mph - 0.00 in   Overcast
6:53 AM 52.0 °F 50.0 °F 93% 30.19 in 1.8 mi Calm Calm - N/A   Overcast
7:20 AM 51.8 °F 50.0 °F 94% 30.18 in 1.0 mi Calm Calm - N/A   Overcast
7:28 AM 51.8 °F 48.2 °F 88% 30.18 in 0.5 mi Calm Calm - N/A Fog Fog
7:53 AM 52.0 °F 50.0 °F 93% 30.18 in 0.8 mi Calm Calm - N/A   Overcast
8:03 AM 53.6 °F 51.8 °F 94% 30.17 in 1.0 mi Calm Calm - N/A   Overcast
8:31 AM 53.6 °F 51.8 °F 94% 30.17 in 2.0 mi Calm Calm - N/A   Mostly Cloudy
8:49 AM 53.6 °F 51.8 °F 94% 30.18 in 1.8 mi Calm Calm - N/A   Mostly Cloudy
8:53 AM 54.0 °F 51.1 °F 90% 30.18 in 1.8 mi West 3.5 mph - N/A   Mostly Cloudy
9:05 AM 53.6 °F 51.8 °F 94% 30.18 in 1.5 mi WNW 8.1 mph - N/A   Mostly Cloudy
9:11 AM 53.6 °F 51.8 °F 94% 30.18 in 0.8 mi West 5.8 mph - N/A   Overcast
9:21 AM 51.8 °F 51.8 °F 100% 30.18 in 0.2 mi West 5.8 mph - N/A Fog Fog
9:53 AM 53.1 °F 51.1 °F 93% 30.19 in 0.2 mi West 4.6 mph - N/A Fog Fog
10:03 AM 53.6 °F 51.8 °F 94% 30.19 in 0.5 mi Calm Calm - N/A Fog Fog
10:15 AM 53.6 °F 51.8 °F 94% 30.18 in 1.5 mi Calm Calm - N/A   Overcast
10:27 AM 53.6 °F 51.8 °F 94% 30.18 in 2.5 mi WNW 4.6 mph - N/A   Overcast
10:37 AM 53.6 °F 53.6 °F 100% 30.18 in 3.0 mi NNW 3.5 mph - N/A   Overcast
10:53 AM 55.0 °F 53.1 °F 93% 30.17 in 7.0 mi NNW 3.5 mph - N/A   Partly Cloudy
11:18 AM 59.0 °F 53.6 °F 82% 30.16 in 8.0 mi Calm Calm - N/A   Partly Cloudy
11:53 AM 60.1 °F 54.0 °F 80% 30.15 in 10.0 mi Variable 4.6 mph - N/A   Partly Cloudy
12:53 PM 63.0 °F 53.1 °F 70% 30.12 in 10.0 mi NW 3.5 mph - N/A   Partly Cloudy
1:53 PM 64.9 °F 52.0 °F 63% 30.09 in 10.0 mi Variable 6.9 mph - N/A   Partly Cloudy
2:53 PM 64.0 °F 54.0 °F 70% 30.08 in 10.0 mi WNW 5.8 mph - N/A   Clear
3:53 PM 64.0 °F 52.0 °F 65% 30.07 in 10.0 mi WNW 4.6 mph - N/A   Clear
4:53 PM 63.0 °F 52.0 °F 67% 30.05 in 10.0 mi Calm Calm - N/A   Clear
5:53 PM 57.9 °F 52.0 °F 81% 30.06 in 10.0 mi Calm Calm - N/A   Clear
6:53 PM 55.0 °F 51.1 °F 86% 30.05 in 10.0 mi Calm Calm - N/A   Mostly Cloudy
7:53 PM 55.9 °F 52.0 °F 87% 30.05 in 10.0 mi South 3.5 mph - N/A   Overcast
8:53 PM 55.9 °F 53.1 °F 90% 30.05 in 9.0 mi WSW 5.8 mph - N/A   Mostly Cloudy
9:53 PM 55.9 °F 52.0 °F 87% 30.06 in 7.0 mi Calm Calm - N/A   Overcast
10:53 PM 54.0 °F 52.0 °F 93% 30.06 in 4.0 mi Calm Calm - N/A   Mostly Cloudy
11:53 PM 54.0 °F 52.0 °F 93% 30.04 in 4.0 mi Calm Calm - N/A   Overcast